Location: Mentone
(34.5413°N, 85.5351°W)
Time: 16:05:21
(UTC-05:00)

Transit 2A Rocket - Visible Passes

Search period start: 23 August 2016 00:00
Search period end: 02 September 2016 00:00
Orbit: 584 x 920 km, 66.7° (Epoch: 22 August)

Date Brightness Start Highest point End Pass type
(mag) Time Alt. Az. Time Alt. Az. Time Alt. Az.
23 Aug 6.7 22:44:36 33° N 22:44:36 33° N 22:47:59 10° NNE visible
24 Aug 8.1 00:24:54 10° NW 00:25:50 10° NW 00:26:47 10° NNW visible
24 Aug 6.2 22:02:03 38° NNE 22:02:03 38° NNE 22:05:43 10° NNE visible
24 Aug 7.7 23:41:51 16° WNW 23:42:57 17° NW 23:46:47 10° N visible
25 Aug 5.8 21:18:44 40° ENE 21:18:44 40° ENE 21:23:10 10° NE visible
25 Aug 7.2 22:58:27 23° W 23:00:12 26° NW 23:05:18 10° N visible
26 Aug 6.1 20:30:20 10° SSE 20:35:13 28° ESE 20:40:17 10° NE visible
26 Aug 6.4 22:12:00 10° SW 22:17:37 42° WNW 22:23:26 10° NNE visible
27 Aug 8.3 05:19:55 10° NNE 05:21:48 12° NE 05:23:38 10° ENE visible
27 Aug 6.7 19:49:54 10° SE 19:53:14 15° ESE 19:56:38 10° ENE visible
27 Aug 5.5 21:29:16 10° SW 21:35:10 70° WNW 21:41:20 10° NNE visible
27 Aug 8.2 23:16:36 10° WNW 23:18:56 12° NW 23:21:17 10° NNW visible
28 Aug 5.2 20:47:00 10° SSW 20:52:51 70° ESE 20:58:59 10° NNE visible
28 Aug 7.7 22:31:51 10° W 22:36:05 19° NW 22:40:24 10° N visible
29 Aug 7.5 05:35:49 10° N 05:40:30 26° NE 05:44:50 10° ESE visible
29 Aug 5.7 20:05:12 10° S 20:10:40 40° ESE 20:16:21 10° NE visible
29 Aug 7.1 21:48:10 10° WSW 21:53:24 31° NW 21:58:46 10° N visible
30 Aug 8.0 04:54:21 10° N 04:57:46 16° NE 05:01:00 10° E visible
30 Aug 6.2 21:05:05 10° SW 21:10:51 50° WNW 21:16:49 10° NNE visible
31 Aug 5.4 20:22:29 10° SSW 20:28:26 83° WNW 20:34:38 10° NNE visible
31 Aug 8.2 22:08:54 10° WNW 22:12:02 14° NW 22:15:11 10° NNW visible
01 Sep 6.7 05:11:07 10° N 05:16:16 37° NE 05:20:58 10° ESE visible
01 Sep 5.4 19:40:22 10° S 19:46:10 59° ESE 19:52:13 10° NE visible
01 Sep 7.7 21:24:37 10° W 21:29:14 22° NW 21:33:57 10° N visible
